SCP
0 0 0 0 0 0 0 0 0 0 0 0 0 0 0 0 0 0 0 0 0 0 0 0 0 0 0 0 0 0 0 0 0 0 0 0 0 0 0 0 0 0 0 0
0 0 0 0 0 0 0 0 0 0 0 0 0 0 0 0 0 0 0 0 0 0 0 0 0 0 0 0 0 0 0 0 0 0 0 0 0 0 0 0 0 0 0 0
0 0 0 0 0 0 0 0 0 0 0 0 0 0 0 0 0 0 0 0 0 0 0 0 0 0 0 0 0 0 0 0 0 0 0 0 0 0 0 0 0 0 0 0
0 0 0 0 0 0 0 0 0 0 0 0 0 0 0 0 0 0 0 0 0 0 0 0 0 0 0 0 0 0 0 0 0 0 0 0 0 0 0 0 0 0 0 0
0 0 0 0 0 0 0 0 0 0 0 0 0 0 0 0 0 0 0 0 0 0 0 0 0 0 0 0 0 0 0 0 0 0 0 0 0 0 0 0 0 0 0 0
0 0 0 0 0 0 0 0 0 0 0 0 0 0 0 0 0 0 0 0 0 0 0 0 0 0 0 0 0 0 0 0 0 0 0 0 0 0 0 0 0 0 0 0
0 0 0 0 0 0 0 0 0 0 0 0 0 0 0 0 0 0 0 0 0 0 0 0 0 0 0 0 0 0 0 0 0 0 0 0 0 0 0 0 0 0 0 0
0 0 0 0 0 0 0 0 0 0 0 0 0 0 0 0 0 0 0 0 0 0 0 0 0 0 0 0 0 0 0 0 0 0 0 0 0 0 0 0 0 0 0 0
0 0 0 0 0 0 0 0 0 0 0 0 0 0 0 0 0 0 0 0 0 0 0 0 0 0 0 0 0 0 0 0 0 0 0 0 0 0 0 0 0 0 0 0
0 0 0 0 0 0 0 0 0 0 0 0 0 0 0 0 0 0 0 0 0 0 0 0 0 0 0 0 0 0 0 0 0 0 0 0 0 0 0 0 0 0 0 0
0 0 0 0 0 0 0 0 0 0 0 0 0 0 0 0 0 0 0 0 0 0 0 0 0 0 0 0 0 0 0 0 0 0 0 0 0 0 0 0 0 0 0 0
0 0 0 0 0 0 0 0 0 0 0 0 0 0 0 0 0 0 0 0 0 0 0 0 0 0 0 0 0 0 0 0 0 0 0 0 0 0 0 0 0 0 0 0
0 0 0 0 0 0 0 0 0 0 0 0 0 0 0 0 0 0 0 0 0 0 0 0 0 0 0 0 0 0 0 0 0 0 0 0 0 0 0 0 0 0 0 0
0 0 0 0 0 0 0 0 0 0 0 0 0 0 0 0 0 0 0 0 0 0 0 0 0 0 0 0 0 0 0 0 0 0 0 0 0 0 0 0 0 0 0 0
0 0 0 0 0 0 0 0 0 0 0 0 0 0 0 0 0 0 0 0 0 0 0 0 0 0 0 0 0 0 0 0 0 0 0 0 0 0 0 0 0 0 0 0
0 0 0 0 0 0 0 0 0 0 0 0 0 0 0 0 0 0 0 0 0 0 0 0 0 0 0 0 0 0 0 0 0 0 0 0 0 0 0 0 0 0 0 0
0 0 0 0 0 0 0 0 0 0 0 0 0 0 0 0 0 0 0 0 0 0 0 0 0 0 0 0 0 0 0 0 0 0 0 0 0 0 0 0 0 0 0 0
0 0 0 0 0 0 0 0 0 0 0 0 0 0 0 0 0 0 0 0 0 0 0 0 0 0 0 0 0 0 0 0 0 0 0 0 0 0 0 0 0 0 0 0
0 0 0 0 0 0 0 0 0 0 0 0 0 0 0 0 0 0 0 0 0 0 0 0 0 0 0 0 0 0 0 0 0 0 0 0 0 0 0 0 0 0 0 0
0 0 0 0 0 0 0 0 0 0 0 0 0 0 0 0 0 0 0 0 0 0 0 0 0 0 0 0 0 0 0 0 0 0 0 0 0 0 0 0 0 0 0 0
0 0 0 0 0 0 0 0 0 0 0 0 0 0 0 0 0 0 0 0 0 0 0 0 0 0 0 0 0 0 0 0 0 0 0 0 0 0 0 0 0 0 0 0
0 0 0 0 0 0 0 0 0 0 0 0 0 0 0 0 0 0 0 0 0 0 0 0 0 0 0 0 0 0 0 0 0 0 0 0 0 0 0 0 0 0 0 0
0 0 0 0 0 0 0 0 0 0 0 0 0 0 0 0 0 0 0 0 0 0 0 0 0 0 0 0 0 0 0 0 0 0 0 0 0 0 0 0 0 0 0 0
0 0 0 0 0 0 0 0 0 0 0 0 0 0 0 0 0 0 0 0 0 0 0 0 0 0 0 0 0 0 0 0 0 0 0 0 0 0 0 0 0 0 0 0
0 0 0 0 0 0 0 0 0 0 0 0 0 0 0 0 0 0 0 0 0 0 0 0 0 0 0 0 0 0 0 0 0 0 0 0 0 0 0 0 0 0 0 0
0 0 0 0 0 0 0 0 0 0 0 0 0 0 0 0 0 0 0 0 0 0 0 0 0 0 0 0 0 0 0 0 0 0 0 0 0 0 0 0 0 0 0 0
Wind_Speed
7 9 9 8 6 4 4 5 6 5 4 6 11 13 9 5 6 9 10 12 13 13 13 14 16 17 17 17 19 20 20 19 17 14 15 15 14 13 12 12 16 17 16 17
6 11 8 4 2 4 6 5 5 6 5 5 10 9 7 5 7 8 10 11 13 14 14 15 16 16 16 17 18 19 19 18 17 15 14 13 14 13 12 13 15 17 18 18
10 6 5 5 7 3 2 2 2 6 6 5 8 9 9 6 3 4 7 9 12 13 14 14 15 16 16 17 17 16 18 18 17 18 13 13 12 12 12 14 13 16 18 18
9 5 4 6 7 5 1 2 2 9 8 6 9 6 12 8 3 3 8 11 13 14 13 13 15 16 17 16 15 16 17 17 17 17 15 18 14 14 16 14 14 17 18 17
6 4 6 6 5 5 4 3 2 8 6 3 8 8 7 8 4 3 8 11 13 13 13 13 14 15 15 15 14 15 17 16 17 17 17 17 15 14 14 15 17 17 16 16
5 3 4 5 3 1 2 3 4 5 5 7 4 7 3 5 0 5 9 12 13 13 13 12 13 13 14 15 14 14 16 17 17 18 18 18 19 19 19 19 18 16 14 14
3 3 4 4 3 1 4 5 4 3 5 2 3 6 3 8 4 6 10 13 14 13 12 12 13 14 14 16 15 15 17 17 18 18 18 18 18 19 18 18 17 17 14 14
0 2 5 6 6 6 6 6 6 7 8 4 3 3 6 6 3 6 9 12 12 13 11 12 13 13 14 16 16 16 17 17 18 18 18 17 18 14 13 17 17 16 14 15
3 2 3 4 4 4 2 2 4 6 6 8 4 4 5 3 2 7 11 12 13 12 11 12 12 13 14 15 16 16 17 17 17 18 18 17 17 17 17 18 17 14 15 16
3 2 1 1 2 3 4 1 3 5 8 9 6 3 2 4 4 9 12 14 14 11 10 12 12 12 14 14 15 16 16 17 17 17 16 14 16 17 17 16 18 18 19 19
1 3 1 2 1 1 1 1 0 2 5 7 10 3 7 3 5 9 12 13 13 11 11 12 12 12 13 14 14 15 16 16 16 16 16 16 16 16 17 16 17 18 18 19
1 3 3 1 3 1 1 0 2 5 5 6 8 2 8 4 5 8 12 13 11 10 11 12 12 13 13 14 14 15 15 15 16 16 16 16 16 16 17 17 18 18 19 18
1 4 5 3 4 4 2 2 2 3 5 6 6 1 6 2 7 10 13 13 10 10 12 12 12 13 13 14 14 14 15 15 15 15 16 16 16 17 17 18 18 18 18 18
1 4 5 7 5 1 3 5 5 6 6 6 8 7 2 7 10 13 13 11 10 11 13 13 12 13 13 14 14 14 15 14 15 15 15 16 16 17 17 17 17 18 18 18
2 4 4 6 2 4 7 8 8 10 9 8 7 6 9 7 10 12 11 9 11 13 13 13 13 14 14 14 14 14 14 14 15 15 15 15 16 16 16 17 17 17 17 17
1 3 3 4 2 4 8 9 9 10 9 10 9 9 2 7 10 12 10 8 11 13 13 13 14 14 14 15 14 14 14 14 14 14 14 15 15 16 16 16 16 17 17 17
2 2 4 5 3 7 8 5 9 6 7 6 6 4 5 9 12 12 7 7 11 13 13 14 14 14 14 14 14 15 15 15 14 14 14 14 15 16 16 16 16 16 16 16
3 2 2 5 6 7 3 2 4 6 5 6 6 4 5 8 9 4 3 7 11 12 12 12 12 13 13 13 13 14 14 14 14 14 14 15 15 15 16 16 15 15 14 14
1 2 2 2 5 10 3 5 5 5 5 5 5 3 5 7 8 3 2 6 9 10 11 11 12 13 13 13 13 14 15 14 14 15 15 15 15 15 16 16 15 14 14 14
3 2 3 2 5 7 2 6 5 3 4 7 4 3 5 6 7 5 3 6 7 9 9 10 11 12 12 12 13 14 15 15 15 16 16 16 16 16 16 16 15 14 14 14
4 4 5 6 7 9 6 8 7 4 2 8 4 2 2 3 3 4 3 6 7 9 10 11 12 11 11 12 13 14 15 16 16 17 17 16 16 15 15 14 13 13 13 13
7 7 7 5 7 7 11 10 7 1 7 5 3 2 1 1 2 2 4 6 8 9 10 11 11 12 11 12 13 15 15 16 16 17 16 16 16 14 12 13 13 12 12 12
8 7 4 9 4 4 10 5 4 7 6 5 4 4 4 3 2 3 4 6 7 9 10 10 11 13 12 12 13 15 16 16 16 16 16 15 15 14 13 13 12 11 10 9
6 4 5 8 7 6 8 6 7 6 6 7 7 7 6 5 4 2 4 6 7 8 9 10 11 12 13 14 13 14 15 15 16 16 16 14 14 14 13 11 10 10 10 10
5 9 7 8 3 5 9 10 9 8 9 10 9 7 6 6 4 1 3 5 6 7 8 9 11 12 14 14 14 14 15 15 16 16 15 14 13 13 12 11 10 11 10 11
10 12 10 6 8 8 9 13 12 12 10 10 10 8 6 5 4 1 3 4 6 7 9 10 11 12 13 14 14 14 15 15 16 14 14 12 12 11 11 11 11 13 14 16
Wind_Direction
34 55 40 11 355 17 83 113 113 95 102 104 127 134 129 114 74 55 41 29 20 15 13 11 8 5 1 360 359 356 354 353 354 352 346 343 340 338 337 339 336 335 334 334
90 53 22 12 56 116 112 120 121 115 114 121 143 143 140 113 71 48 33 23 14 3 2 3 2 2 359 359 359 355 353 349 352 350 341 337 333 333 335 335 333 334 333 332
78 48 19 53 67 119 119 332 228 159 127 141 160 181 186 159 110 62 38 22 14 4 356 356 357 359 357 358 358 353 350 347 349 347 341 338 335 335 339 338 334 333 330 328
73 48 39 61 51 357 211 14 266 167 181 178 211 252 177 183 176 36 22 14 6 1 355 354 357 358 356 354 353 350 348 347 348 346 344 343 340 340 338 335 330 329 329 327
81 35 31 41 23 352 354 2 197 191 216 204 205 260 147 177 221 358 7 2 358 357 353 354 358 355 352 350 350 347 346 348 349 347 346 342 338 337 332 333 331 332 330 328
85 60 17 353 323 342 302 172 133 167 212 246 191 235 165 166 148 359 357 353 352 354 350 350 352 352 351 350 348 347 346 348 349 348 346 343 339 337 334 336 334 333 329 327
113 78 31 346 319 59 354 304 277 249 232 250 121 240 68 117 70 8 348 345 348 348 346 345 349 349 349 349 347 346 347 347 348 347 346 342 340 337 334 335 332 331 328 328
334 98 31 17 10 349 12 346 350 314 310 317 193 266 117 135 66 0 348 344 343 345 346 345 347 346 346 346 347 347 346 345 346 346 344 341 341 336 332 332 330 328 325 324
5 53 86 39 22 325 325 34 353 286 281 275 243 131 148 193 315 348 347 347 349 346 343 343 344 346 346 346 347 346 344 344 344 343 342 340 341 338 334 331 329 328 326 323
355 297 87 10 213 67 24 72 251 295 316 305 294 238 152 149 352 348 349 349 349 348 345 344 346 347 347 346 345 345 345 343 342 342 341 338 339 338 335 332 332 330 328 326
296 287 199 189 256 338 157 144 47 286 291 295 304 26 97 90 12 349 349 351 350 349 349 347 347 347 345 344 345 344 344 343 342 342 340 339 339 338 337 335 333 331 329 328
19 288 274 165 69 347 306 266 254 293 287 257 284 13 120 72 7 351 348 354 353 352 348 346 346 344 344 343 344 343 343 342 341 340 338 338 339 339 339 337 335 333 332 330
207 272 287 193 167 160 173 172 226 273 277 255 262 352 131 12 352 355 353 352 351 349 345 345 346 344 343 342 341 340 340 340 338 338 337 339 340 341 340 337 335 336 334 333
220 260 272 306 341 47 228 216 209 227 252 261 252 291 324 348 347 348 351 350 347 348 345 346 343 343 342 339 337 337 337 337 337 337 338 338 339 338 337 335 335 337 337 336
272 271 270 278 269 261 262 252 226 228 248 269 294 296 324 347 341 340 348 349 346 345 344 344 342 340 338 336 335 335 333 334 334 334 335 335 334 333 334 332 335 337 337 337
344 283 291 265 213 275 266 250 237 238 243 252 274 291 21 333 330 338 351 350 342 342 342 342 339 337 335 334 331 330 328 331 329 330 329 329 330 331 331 330 335 336 336 336
148 268 290 279 309 295 269 230 206 209 215 234 267 312 336 324 336 342 352 346 340 339 339 338 335 332 330 329 327 324 325 324 324 325 324 324 326 327 327 328 333 335 334 334
169 198 269 299 315 283 74 71 199 214 226 224 251 281 310 325 332 7 19 344 339 339 334 331 328 326 324 324 322 321 321 319 321 320 320 322 323 321 322 326 328 332 333 329
303 222 238 279 284 273 153 173 179 213 242 197 212 268 318 332 298 171 79 347 338 334 328 325 323 321 321 323 324 322 320 323 322 321 321 321 320 318 320 320 324 331 330 327
87 207 226 205 265 275 100 143 151 203 240 168 203 287 322 326 318 30 43 344 338 332 328 325 322 322 323 326 325 321 323 325 326 324 322 320 321 322 320 319 324 327 326 329
183 188 211 220 246 273 122 142 160 225 43 146 197 274 318 323 345 23 2 348 340 332 330 328 325 325 327 327 325 324 325 328 326 322 321 323 325 324 320 321 323 322 324 327
200 195 208 198 231 260 142 157 198 105 115 155 167 139 125 80 81 27 3 347 338 332 333 331 327 326 329 330 330 326 328 328 325 323 325 327 327 325 323 324 325 324 325 326
219 217 219 208 232 78 168 174 140 133 148 150 141 129 128 133 99 31 352 336 331 330 330 330 326 325 330 336 335 329 329 329 327 326 328 328 327 327 328 330 330 329 327 323
218 203 232 253 249 198 183 157 144 141 129 121 122 127 131 129 107 36 338 330 330 330 330 329 327 329 333 337 336 333 331 330 328 329 329 329 328 330 333 333 333 331 326 322
217 176 217 245 226 168 184 176 153 127 123 122 119 122 127 128 121 79 316 323 327 326 328 328 330 329 331 333 334 336 335 334 332 331 332 331 332 336 337 340 339 338 339 343
193 190 194 220 184 174 173 165 151 144 143 139 135 131 122 122 133 195 302 317 322 326 327 328 330 330 330 332 334 337 339 337 334 335 337 336 338 342 343 342 343 348 350 354